Temp
12 12 12 11 11 11 11 11 11 11 12 12 13 13 13 14 13 14 14 13 13 12
11 10 10 10 10 10 10 10 10 10 10 10 11 11 12 12 12 12 12 12 12 11
9 9 9 9 9 9 9 9 9 9 9 9 9 10 10 10 11 11 11 11 10 10
8 8 8 8 7 7 7 8 8 8 8 8 8 8 8 8 8 9 8 8 8 8
7 6 6 6 6 6 6 6 6 6 7 7 7 7 7 7 6 6 6 6 6 5
5 5 4 4 4 4 4 4 5 5 5 5 5 5 5 5 5 4 4 4 4 4
4 3 2 2 3 2 3 3 3 3 3 2 3 3 3 4 3 3 3 2 2 2
3 2 2 2 2 2 2 2 1 1 1 1 1 0 1 1 1 1 1 1 1 1
2 2 2 2 2 2 1 1 1 1 1 1 0 0 -0 0 0 1 1 0 0 1
2 1 1 1 1 1 1 1 1 1 1 0 0 -0 0 0 0 0 0 0 -0 -1
1 1 1 0 0 0 0 0 1 0 0 -0 -1 -1 0 0 -0 -0 -1 -1 -1 -1
1 0 0 -0 -0 -0 -0 -0 0 -0 -0 -0 -1 -0 -0 -1 -1 -1 -1 -2 -2 -2
0 0 -0 -0 -1 -1 -1 -0 -1 -1 -1 -1 -1 -1 -1 -1 -1 -1 -2 -2 -2 -2
0 0 -0 -0 -1 -1 -2 -1 -1 -1 -1 -1 -1 -1 -1 -1 -1 -2 -2 -2 -2 -3
Height
804 804 805 805 805 805 805 805 804 804 802 802 800 799 798 797 797 799 800 802 803 805
803 803 804 804 804 804 804 804 803 802 801 800 799 798 797 797 797 797 797 799 800 802
803 803 803 803 803 803 803 802 802 801 801 799 798 797 796 796 796 796 797 798 799 800
802 802 802 802 802 801 801 801 801 800 799 798 797 796 795 795 795 796 797 797 798 799
799 800 800 800 800 800 800 800 800 799 798 797 796 796 795 794 795 795 796 797 798 798
798 799 799 799 800 799 799 799 799 798 797 796 796 795 795 795 796 796 796 797 796 798
798 798 798 798 799 800 799 799 799 798 798 797 796 795 794 796 796 796 796 797 799 800
797 797 798 798 798 800 800 800 800 799 798 798 796 796 796 797 798 799 800 800 801 801
796 796 796 797 798 798 800 800 802 802 800 799 799 800 799 800 801 802 802 802 803 803
795 795 795 796 797 798 800 801 803 803 802 801 802 802 802 803 803 803 804 805 805 803
793 793 794 796 797 799 800 802 802 804 803 803 804 804 804 804 805 805 806 806 806 804
791 792 793 795 797 799 800 801 802 803 804 805 805 805 806 806 806 806 806 806 806 806
790 791 792 794 797 798 800 801 803 804 805 805 805 806 806 806 806 806 806 806 806 806
790 791 792 793 796 797 799 802 804 804 804 805 806 806 807 806 805 805 804 804 805 806
Wind_Speed
0 1 1 2 2 2 3 5 7 8 9 9 9 9 8 6 8 10 11 11 11 9
1 2 1 1 1 2 3 4 6 6 6 6 5 5 4 2 4 5 6 7 7 7
2 1 1 1 1 2 3 4 5 5 5 5 5 4 2 1 2 3 3 3 4 5
2 2 2 2 2 3 3 3 3 3 4 4 5 5 4 3 3 3 4 4 4 4
2 2 2 2 2 1 1 1 1 2 2 3 4 5 5 4 6 7 7 7 6 6
2 1 1 1 1 2 2 2 2 3 3 4 4 4 5 4 5 7 8 7 6 6
2 1 1 2 3 4 6 5 6 6 6 7 7 7 7 5 7 10 11 12 12 13
3 3 2 3 3 4 5 6 7 9 11 12 13 10 11 11 13 14 16 16 17 18
6 5 4 4 5 6 8 10 10 12 13 14 16 13 14 15 15 14 14 14 13 13
6 6 6 7 8 9 10 10 12 13 14 15 13 12 12 12 14 14 13 11 12 12
8 8 8 8 9 11 12 12 12 12 12 13 12 11 12 12 12 12 12 11 10 10
10 10 11 11 11 12 12 12 11 10 11 12 11 8 8 7 7 7 8 7 8 9
11 13 13 12 12 12 11 10 10 10 10 10 9 6 5 4 4 5 5 5 5 5
11 12 12 12 12 13 12 11 10 8 7 5 4 5 3 4 5 5 5 5 5 5
Wind_Direction
27 232 246 247 246 286 311 316 319 318 312 304 301 306 298 292 265 256 251 246 233 228
118 160 176 185 230 288 317 318 322 327 330 328 319 302 301 266 233 197 194 205 200 191
161 164 190 230 281 300 312 315 317 322 331 341 350 360 358 261 227 216 183 175 182 196
195 229 255 275 294 303 309 313 315 325 333 343 353 5 15 46 85 120 114 114 121 115
227 251 269 291 318 322 306 334 356 5 358 16 25 29 33 64 89 101 101 99 95 86
223 213 100 58 54 61 77 81 78 76 74 66 60 72 70 62 89 93 88 78 68 63
194 152 67 46 48 86 88 94 94 87 76 64 68 77 84 95 98 92 86 83 77 70
163 132 136 124 100 97 101 88 86 85 82 76 68 71 87 95 96 96 96 95 92 86
175 171 159 141 131 123 120 113 110 99 94 87 81 83 91 101 102 101 96 93 96 95
186 167 155 147 142 130 126 123 115 107 101 89 83 86 91 101 102 99 97 95 93 89
179 164 156 150 141 136 133 127 118 113 108 106 88 86 88 90 93 97 94 90 78 73
180 170 158 151 147 146 139 132 126 121 119 109 98 86 86 90 88 87 82 72 61 50
183 174 165 160 155 150 151 148 147 139 124 112 104 91 84 67 72 68 62 56 57 61
184 179 170 164 169 167 166 161 162 155 140 133 119 109 77 32 43 51 45 38 30 27